Storm Lake, IA

4:29 AM CDT on August 28, 2016 (GMT -0500)
Storm Lake Municipal

Weather History for KSLB - January, 2013

Change the Weather History Date:

Thursday, January 3, 2013

  Actual Average Record
Temperature  
Mean Temperature 17 °F -  
Max Temperature 28 °F 28 °F 44 °F (1998)
Min Temperature 6 °F 12 °F -5 °F (1999)
Degree Days  
Heating Degree Days 48    
Moisture  
Dew Point 11 °F    
Average Humidity 84    
Maximum Humidity 93    
Minimum Humidity 73    
Precipitation  
Precipitation 0.00 in - - ()
Sea Level Pressure  
Sea Level Pressure 30.25 in    
Wind  
Wind Speed 15 mph (WNW)    
Max Wind Speed 22 mph    
Max Gust Speed 29 mph    
Visibility 10 miles    
Events Snow    
Averages and records for this station are not official NWS values.
T = Trace of Precipitation, MM = Missing Value Source: NWS Daily Summary

Daily Weather History Graph

Daily Weather History Graph

Search for Another Location

Airport or City:

Trip Planner

Search our weather history database for the weather conditions in past years. The results will help you decide how hot, cold, wet, or windy it might be!

Date:

Astronomy

Jan. 03, 2013 Rise Set
Actual Time 7:51 AM CST 5:00 PM CST
Civil Twilight 7:19 AM CST 5:32 PM CST
Nautical Twilight 6:43 AM CST 6:07 PM CST
Astronomical Twilight 6:09 AM CST 6:41 PM CST
Moon 11:46 PM CST (1/3) 10:54 AM CST (1/3)
Length of Visible Light 10h 13m
Length of Day
9h 09m
Waning Gibbous, 65% of the Moon is Illuminated
Jan 3
Waning Gibbous
Jan 4
Last Quarter
Jan 11
New
Jan 18
First Quarter
Jan 26
Full

Hourly Weather History & Observations

Time (CST) Temp. Windchill Dew Point Humidity Pressure Visibility Wind Dir Wind Speed Gust Speed Precip Events Conditions
12:15 AM 28.4 °F 17.5 °F 24.8 °F 86% 30.14 in 10.0 mi WNW 13.8 mph - N/A   Overcast
12:35 AM 28.4 °F 16.6 °F 24.8 °F 86% 30.13 in 10.0 mi WNW 16.1 mph - N/A   Overcast
12:55 AM 28.4 °F 16.6 °F 26.6 °F 93% 30.13 in 10.0 mi WNW 16.1 mph - N/A   Overcast
1:15 AM 28.4 °F 16.6 °F 26.6 °F 93% 30.13 in 10.0 mi WNW 16.1 mph - N/A   Overcast
1:35 AM 28.4 °F 16.6 °F 26.6 °F 93% 30.14 in 10.0 mi WNW 16.1 mph - N/A   Overcast
1:55 AM 28.4 °F 17.0 °F 26.6 °F 93% 30.14 in 10.0 mi WNW 15.0 mph 23.0 mph N/A   Overcast
2:15 AM 28.4 °F 17.0 °F 26.6 °F 93% 30.15 in 10.0 mi NW 15.0 mph - N/A   Overcast
2:35 AM 28.4 °F 17.5 °F 26.6 °F 93% 30.16 in 10.0 mi NW 13.8 mph - N/A   Overcast
2:55 AM 26.6 °F 13.8 °F 24.8 °F 93% 30.16 in 10.0 mi NNW 17.3 mph - N/A   Overcast
3:15 AM 26.6 °F 14.3 °F 23.0 °F 86% 30.17 in 10.0 mi NNW 16.1 mph - N/A   Overcast
3:35 AM 24.8 °F 10.7 °F 21.2 °F 86% 30.18 in 10.0 mi North 19.6 mph - N/A   Overcast
3:55 AM 23.0 °F 9.6 °F 19.4 °F 86% 30.17 in 10.0 mi NNW 16.1 mph 21.9 mph N/A   Overcast
4:15 AM 21.2 °F 5.2 °F 17.6 °F 86% 30.18 in 10.0 mi NW 21.9 mph 28.8 mph N/A   Overcast
4:35 AM 19.4 °F 3.6 °F 15.8 °F 86% 30.19 in 10.0 mi NW 19.6 mph 27.6 mph N/A   Overcast
4:55 AM 15.8 °F -1.1 °F 10.4 °F 79% 30.21 in 10.0 mi NNW 19.6 mph - N/A   Mostly Cloudy
5:15 AM 14.0 °F -3.4 °F 8.6 °F 79% 30.22 in 10.0 mi NW 19.6 mph - N/A   Partly Cloudy
5:35 AM 12.2 °F -4.3 °F 6.8 °F 79% 30.23 in 10.0 mi NW 16.1 mph - N/A Snow Light Snow
5:55 AM 10.4 °F -7.7 °F 5.0 °F 79% 30.23 in 10.0 mi NW 18.4 mph - N/A   Scattered Clouds
6:15 AM 10.4 °F -7.2 °F 5.0 °F 79% 30.24 in 10.0 mi NW 17.3 mph - N/A   Partly Cloudy
6:35 AM 8.6 °F -8.3 °F 3.2 °F 79% 30.25 in 10.0 mi NW 15.0 mph - N/A   Partly Cloudy
6:55 AM 8.6 °F -6.3 °F 3.2 °F 79% 30.26 in 10.0 mi NW 11.5 mph - N/A   Scattered Clouds
7:35 AM 6.8 °F -9.3 °F 1.4 °F 79% 30.28 in 10.0 mi NW 12.7 mph - N/A   Overcast
7:55 AM 6.8 °F -9.3 °F 1.4 °F 79% 30.29 in 10.0 mi NW 12.7 mph - N/A   Mostly Cloudy
8:15 AM 6.8 °F -9.3 °F 1.4 °F 79% 30.29 in 10.0 mi WNW 12.7 mph - N/A   Mostly Cloudy
8:35 AM 6.8 °F -9.3 °F 1.4 °F 79% 30.29 in 10.0 mi WNW 12.7 mph - N/A   Mostly Cloudy
8:55 AM 6.8 °F -10.7 °F 1.4 °F 79% 30.30 in 10.0 mi WNW 15.0 mph - N/A   Partly Cloudy
9:15 AM 6.8 °F -10.7 °F 1.4 °F 79% 30.30 in 10.0 mi WNW 15.0 mph - N/A   Partly Cloudy
9:35 AM 6.8 °F -10.7 °F 1.4 °F 79% 30.31 in - WNW 15.0 mph - N/A   Partly Cloudy
9:55 AM 8.6 °F -10.0 °F 3.2 °F 79% 30.31 in 10.0 mi WNW 18.4 mph - N/A   Clear
10:15 AM 8.6 °F -9.5 °F 3.2 °F 79% 30.32 in 10.0 mi WNW 17.3 mph - N/A   Clear
10:35 AM 10.4 °F -7.2 °F 3.2 °F 73% 30.33 in 9.0 mi WNW 17.3 mph - N/A   Clear
10:55 AM 10.4 °F -6.6 °F 3.2 °F 73% 30.33 in 10.0 mi WNW 16.1 mph - N/A   Clear
11:15 AM 10.4 °F -5.4 °F 5.0 °F 79% 30.32 in 9.0 mi WNW 13.8 mph 19.6 mph N/A   Clear
11:35 AM 12.2 °F -2.5 °F 5.0 °F 73% 30.32 in 10.0 mi WNW 12.7 mph - N/A   Clear
11:55 AM 12.2 °F -3.7 °F 5.0 °F 73% 30.31 in 10.0 mi WNW 15.0 mph - N/A   Clear
12:15 PM 12.2 °F -3.1 °F 6.8 °F 79% 30.31 in 10.0 mi WNW 13.8 mph - N/A   Clear
12:35 PM 14.0 °F -3.0 °F 6.8 °F 73% 30.31 in 10.0 mi NW 18.4 mph - N/A   Scattered Clouds
12:55 PM 14.0 °F -1.4 °F 8.6 °F 79% 30.30 in 10.0 mi NW 15.0 mph - N/A   Mostly Cloudy
1:15 PM 14.0 °F -0.8 °F 8.6 °F 79% 30.29 in 5.0 mi NW 13.8 mph - N/A Snow Light Snow
1:35 PM 14.0 °F -0.8 °F 10.4 °F 86% 30.28 in 4.0 mi NW 13.8 mph - N/A Snow Light Snow
1:55 PM 14.0 °F -0.8 °F 8.6 °F 79% 30.28 in 7.0 mi NW 13.8 mph - N/A Snow Light Snow
2:15 PM 14.0 °F -1.4 °F 10.4 °F 86% 30.28 in 6.0 mi WNW 15.0 mph - N/A Snow Light Snow
2:35 PM 15.8 °F 2.7 °F 10.4 °F 79% 30.28 in 9.0 mi WNW 11.5 mph - N/A Snow Light Snow
2:55 PM 15.8 °F 2.7 °F 10.4 °F 79% 30.28 in 10.0 mi WNW 11.5 mph - N/A Snow Light Snow
3:15 PM 15.8 °F 1.4 °F 12.2 °F 86% 30.28 in 10.0 mi WNW 13.8 mph - N/A Snow Light Snow
3:55 PM 15.8 °F 4.2 °F 12.2 °F 86% 30.28 in 9.0 mi WNW 9.2 mph - N/A   Mostly Cloudy
4:15 PM 15.8 °F 4.2 °F 10.4 °F 79% 30.29 in 10.0 mi West 9.2 mph - N/A   Clear
4:35 PM 15.8 °F 4.2 °F 10.4 °F 79% 30.29 in 9.0 mi West 9.2 mph - N/A   Clear
4:55 PM 12.2 °F 0.7 °F 8.6 °F 85% 30.30 in 10.0 mi WSW 8.1 mph - N/A   Scattered Clouds
5:15 PM 14.0 °F 2.9 °F 10.4 °F 86% 30.30 in 10.0 mi WSW 8.1 mph - N/A   Overcast
5:35 PM 14.0 °F 3.9 °F 12.2 °F 93% 30.30 in 10.0 mi WSW 6.9 mph - N/A   Overcast
5:55 PM 15.8 °F 5.1 °F 12.2 °F 86% 30.29 in 10.0 mi SW 8.1 mph - N/A   Overcast
6:15 PM 17.6 °F 6.4 °F 14.0 °F 86% 30.29 in 10.0 mi SW 9.2 mph - N/A   Overcast
6:35 PM 17.6 °F 4.3 °F 14.0 °F 86% 30.28 in 10.0 mi SW 12.7 mph - N/A   Overcast
6:55 PM 15.8 °F 2.1 °F 12.2 °F 86% 30.27 in 10.0 mi SW 12.7 mph - N/A   Mostly Cloudy
7:15 PM 15.8 °F 2.1 °F 12.2 °F 86% 30.27 in 10.0 mi SW 12.7 mph - N/A   Partly Cloudy
7:35 PM 14.0 °F 0.5 °F 12.2 °F 93% 30.26 in 10.0 mi SW 11.5 mph - N/A   Clear
7:55 PM 14.0 °F -0.2 °F 12.2 °F 93% 30.26 in 10.0 mi SW 12.7 mph - N/A   Clear
8:15 PM 14.0 °F -0.8 °F 12.2 °F 93% 30.26 in 10.0 mi SW 13.8 mph - N/A   Clear
8:35 PM 14.0 °F -2.0 °F 12.2 °F 93% 30.25 in 10.0 mi SW 16.1 mph - N/A   Clear
8:55 PM 14.0 °F -2.5 °F 12.2 °F 93% 30.24 in 10.0 mi SW 17.3 mph - N/A   Clear
9:15 PM 14.0 °F -2.5 °F 12.2 °F 93% 30.23 in 10.0 mi SW 17.3 mph - N/A   Clear
9:35 PM 14.0 °F -2.5 °F 12.2 °F 93% 30.22 in 10.0 mi WSW 17.3 mph - N/A   Clear
9:55 PM 14.0 °F -2.0 °F 12.2 °F 93% 30.22 in 10.0 mi SW 16.1 mph - N/A   Clear
10:15 PM 14.0 °F 0.5 °F 10.4 °F 86% 30.22 in 10.0 mi SW 11.5 mph 18.4 mph N/A   Clear
10:35 PM 14.0 °F -1.4 °F 12.2 °F 93% 30.21 in 10.0 mi SW 15.0 mph - N/A   Clear
10:55 PM 15.8 °F 1.4 °F 12.2 °F 86% 30.21 in 10.0 mi WSW 13.8 mph - N/A   Clear
11:15 PM 14.0 °F -1.4 °F 12.2 °F 93% 30.21 in 10.0 mi WSW 15.0 mph - N/A   Clear
11:35 PM 14.0 °F -2.5 °F 12.2 °F 93% 30.20 in 10.0 mi WSW 17.3 mph - N/A   Clear
11:55 PM 15.8 °F -1.1 °F 12.2 °F 86% 30.19 in 10.0 mi WSW 19.6 mph - N/A   Clear